Weather History for Nome, AK

Change the Weather History Date:

Friday, October 25, 2013

  Actual Average Record
Temperature  
Mean Temperature 37 °F 25 °F  
Max Temperature 41 °F 30 °F 45 °F (1937)
Min Temperature 33 °F 19 °F -5 °F (1996)
Degree Days  
Heating Degree Days 28 40  
Month to date heating degree days 711 874  
Since 1 July heating degree days 2231 2404  
Cooling Degree Days 0    
Month to date cooling degree days 0  
Year to date cooling degree days 7  
Moisture  
Dew Point 34 °F    
Average Humidity 0    
Maximum Humidity 0    
Minimum Humidity 0    
Precipitation  
Precipitation 0.23 in 0.05 in 1.10 in (1919)
Month to date precipitation 3.25 1.35  
Year to date precipitation 18.34 14.25  
Snow  
Snow 0.10 in 0.20 in 3.40 in (1992)
Month to date snowfall 0.5 3.1  
Since 1 July snowfall 1.6 3.7  
Since 1 September snowfall 1.6 3.7  
Snow Depth T in    
Sea Level Pressure  
Sea Level Pressure 29.55 in    
Wind  
Wind Speed 18 mph (East)    
Max Wind Speed 23 mph    
Max Gust Speed 30 mph    
Visibility 8 miles    
Events Rain , Snow    
T = Trace of Precipitation, MM = Missing Value Source: NWS Daily Summary

Daily Weather History Graph

Daily Weather History Graph

Search for Another Location

Airport:

Trip Planner

Search our weather history database for the weather conditions in past years. The results will help you decide how hot, cold, wet, or windy it might be!

Date:

Astronomy

Oct. 25, 2013 Rise Set
Actual Time 10:26 AM AKDT 7:04 PM AKDT
Civil Twilight 9:34 AM AKDT 7:55 PM AKDT
Nautical Twilight 8:37 AM AKDT 8:52 PM AKDT
Astronomical Twilight 7:41 AM AKDT 9:48 PM AKDT
Moon No Moon Rise 4:50 PM AKDT (10/25)
Length of Visible Light 10h 21m
Length of Day
8h 37m
Waning Gibbous, 61% of the Moon is Illuminated
Oct 25
Waning Gibbous
Oct 26
Last Quarter
Nov 3
New
Nov 9
First Quarter
Nov 17
Full

Hourly Weather History & Observations

Time (AKDT) Temp. Windchill Dew Point Humidity Pressure Visibility Wind Dir Wind Speed Gust Speed Precip Events Conditions
12:22 AM 32.0 °F 19.5 °F 28.4 °F 87% 29.43 in 4.0 mi NE 21.9 mph 28.8 mph 0.00 in Snow Light Snow
12:34 AM 33.8 °F 22.5 °F 30.2 °F 87% 29.43 in 2.5 mi NE 19.6 mph 27.6 mph 0.00 in Snow Light Snow
12:53 AM 33.1 °F 21.5 °F 30.0 °F 89% 29.44 in 2.5 mi NE 19.6 mph 26.5 mph 0.00 in Snow Light Snow
1:53 AM 33.1 °F 23.0 °F 30.0 °F 89% 29.44 in 7.0 mi East 15.0 mph - 0.00 in Snow Light Snow
2:10 AM 33.8 °F 23.2 °F 30.2 °F 87% 29.44 in 10.0 mi ENE 17.3 mph - N/A   Overcast
2:32 AM 35.6 °F 26.2 °F 30.2 °F 81% 29.44 in 10.0 mi ENE 15.0 mph 24.2 mph N/A   Overcast
2:53 AM 35.1 °F 25.9 °F 30.0 °F 82% 29.44 in 10.0 mi ENE 13.8 mph 21.9 mph N/A   Overcast
3:53 AM 35.1 °F 24.8 °F 30.0 °F 82% 29.44 in 10.0 mi ENE 17.3 mph 26.5 mph N/A   Overcast
4:53 AM 36.0 °F 26.7 °F 30.0 °F 79% 29.44 in 10.0 mi ENE 15.0 mph 23.0 mph N/A   Mostly Cloudy
5:53 AM 36.0 °F 26.3 °F 30.0 °F 79% 29.45 in 10.0 mi ENE 16.1 mph 24.2 mph N/A   Overcast
6:53 AM 36.0 °F 25.3 °F 30.0 °F 79% 29.45 in 10.0 mi ENE 19.6 mph 26.5 mph N/A   Mostly Cloudy
7:53 AM 36.0 °F 25.3 °F 30.9 °F 82% 29.47 in 10.0 mi ENE 19.6 mph 28.8 mph 0.00 in Rain Light Rain
7:58 AM 35.6 °F 24.5 °F 30.2 °F 81% 29.47 in 10.0 mi ENE 20.7 mph 28.8 mph 0.00 in Rain Light Rain
8:53 AM 36.0 °F 26.3 °F 30.9 °F 82% 29.48 in 10.0 mi ENE 16.1 mph 24.2 mph 0.00 in   Overcast
9:53 AM 36.0 °F 25.3 °F 30.9 °F 82% 29.50 in 10.0 mi ENE 19.6 mph 24.2 mph N/A   Overcast
10:53 AM 36.0 °F 26.3 °F 32.0 °F 86% 29.51 in 8.0 mi ENE 16.1 mph - 0.00 in Rain Light Rain
11:34 AM 35.6 °F 25.2 °F 33.8 °F 93% 29.52 in 4.0 mi East 18.4 mph - 0.01 in Rain Light Rain
11:53 AM 35.1 °F 24.8 °F 34.0 °F 96% 29.53 in 5.0 mi East 17.3 mph - 0.03 in Rain , Snow Light Snow
12:53 PM 35.1 °F 24.8 °F 34.0 °F 96% 29.55 in 8.0 mi ENE 17.3 mph 24.2 mph 0.06 in Rain Light Rain
1:53 PM 37.0 °F 28.5 °F 36.0 °F 96% 29.57 in 6.0 mi East 13.8 mph - 0.05 in Rain Light Rain
2:53 PM 39.0 °F 30.3 °F 37.0 °F 93% 29.58 in 5.0 mi East 16.1 mph - 0.02 in Rain Light Rain
3:08 PM 39.2 °F 29.8 °F 37.4 °F 93% 29.59 in 9.0 mi East 18.4 mph - 0.00 in Rain Light Rain
3:53 PM 39.0 °F 29.3 °F 37.0 °F 93% 29.60 in 7.0 mi ESE 19.6 mph - 0.00 in Rain Light Rain
4:53 PM 39.9 °F 30.8 °F 37.0 °F 89% 29.61 in 10.0 mi ESE 18.4 mph - 0.00 in   Overcast
5:28 PM 39.2 °F 30.2 °F 37.4 °F 93% 29.62 in 10.0 mi ESE 17.3 mph - N/A   Overcast
5:53 PM 39.9 °F 30.8 °F 37.0 °F 89% 29.63 in 10.0 mi East 18.4 mph - N/A   Overcast
6:53 PM 39.9 °F 30.8 °F 37.0 °F 89% 29.65 in 9.0 mi East 18.4 mph - 0.00 in Rain Light Rain
7:16 PM 39.2 °F 30.2 °F 37.4 °F 93% 29.65 in 10.0 mi East 17.3 mph - 0.00 in   Overcast
7:53 PM 39.9 °F 31.1 °F 37.0 °F 89% 29.67 in 10.0 mi East 17.3 mph - 0.00 in Rain Light Rain
8:53 PM 39.9 °F 30.8 °F 37.0 °F 89% 29.69 in 9.0 mi ESE 18.4 mph - 0.01 in Rain Light Rain
9:36 PM 39.2 °F 29.6 °F 37.4 °F 93% 29.70 in 7.0 mi ESE 19.6 mph - 0.01 in Rain Light Rain
9:53 PM 39.9 °F 30.2 °F 37.9 °F 93% 29.70 in 7.0 mi ESE 20.7 mph - 0.02 in Rain Light Rain
10:51 PM 39.2 °F 29.3 °F 37.4 °F 93% 29.72 in 8.0 mi ESE 20.7 mph 26.5 mph 0.02 in Rain Light Rain
10:53 PM 39.9 °F 30.2 °F 37.9 °F 93% 29.72 in 8.0 mi ESE 20.7 mph 27.6 mph 0.03 in Rain Light Rain
11:53 PM 39.9 °F 30.2 °F 37.9 °F 93% 29.74 in 9.0 mi ESE 20.7 mph - 0.01 in Rain Light Rain